contact:dominique.lefevre@mio.osupytheas.fr, maurice.libes@osupytheas.fr, didier.mallarino@osupytheas.fr
Project:EMSO http://www.emso-fr.org/EMSO-France
Depth: 2436.0 m
Title:EMSO Ligure Ouest : Data MII capteur MICROCAT
DateTime_Computer,Latitude,Longitude,Temperature,Conductivity,Pressure,DateTime_Instrument
DateTime_Computer,Latitude,Longitude,degC,S m-1,dbar,DateTime_Instrument
2021-02-14T00:01:01Z,42.805,6.029,13.2983,4.59996,2470.171,2021-2-14T02:02:05Z
2021-02-14T00:04:05Z,42.805,6.029,13.2984,4.59991,2470.171,2021-2-14T02:05:08Z
2021-02-14T00:07:08Z,42.805,6.029,13.2983,4.59989,2470.18,2021-2-14T02:08:11Z
2021-02-14T00:10:11Z,42.805,6.029,13.2982,4.59989,2470.18,2021-2-14T02:11:15Z
2021-02-14T00:13:14Z,42.805,6.029,13.2987,4.59996,2470.171,2021-2-14T02:14:18Z
2021-02-14T00:16:17Z,42.805,6.029,13.2985,4.59992,2470.156,2021-2-14T02:17:21Z
2021-02-14T00:19:20Z,42.805,6.029,13.2989,4.59990,2470.147,2021-2-14T02:20:24Z
2021-02-14T00:22:23Z,42.805,6.029,13.2982,4.59995,2470.133,2021-2-14T02:23:27Z
2021-02-14T00:25:26Z,42.805,6.029,13.2979,4.59991,2470.156,2021-2-14T02:26:30Z
2021-02-14T00:28:30Z,42.805,6.029,13.2984,4.59992,2470.133,2021-2-14T02:29:33Z
2021-02-14T00:31:33Z,42.805,6.029,13.2982,4.59995,2470.147,2021-2-14T02:32:36Z
2021-02-14T00:34:36Z,42.805,6.029,13.2984,4.59996,2470.156,2021-2-14T02:35:40Z
2021-02-14T00:37:39Z,42.805,6.029,13.2980,4.59991,2470.156,2021-2-14T02:38:43Z
2021-02-14T00:40:42Z,42.805,6.029,13.2982,4.59996,2470.18,2021-2-14T02:41:46Z
2021-02-14T00:43:45Z,42.805,6.029,13.2980,4.59988,2470.18,2021-2-14T02:44:49Z
2021-02-14T00:46:48Z,42.805,6.029,13.2986,4.59991,2470.18,2021-2-14T02:47:52Z
2021-02-14T00:49:51Z,42.805,6.029,13.2980,4.59988,2470.147,2021-2-14T02:50:55Z
2021-02-14T00:52:55Z,42.805,6.029,13.2986,4.59995,2470.096,2021-2-14T02:53:58Z
2021-02-14T00:55:58Z,42.805,6.029,13.2983,4.59990,2470.147,2021-2-14T02:57:01Z
2021-02-14T00:59:01Z,42.805,6.029,13.2981,4.59990,2470.124,2021-2-14T03:00:05Z
2021-02-14T01:02:04Z,42.805,6.029,13.2984,4.59993,2470.156,2021-2-14T03:03:08Z
2021-02-14T01:05:07Z,42.805,6.029,13.2977,4.59991,2470.143,2021-2-14T03:06:11Z
2021-02-14T01:08:10Z,42.805,6.029,13.2979,4.59991,2470.171,2021-2-14T03:09:14Z
2021-02-14T01:11:13Z,42.805,6.029,13.2977,4.59991,2470.133,2021-2-14T03:12:17Z
2021-02-14T01:14:16Z,42.805,6.029,13.2985,4.59992,2470.147,2021-2-14T03:15:20Z
2021-02-14T01:17:20Z,42.805,6.029,13.2982,4.59991,2470.156,2021-2-14T03:18:23Z
2021-02-14T01:20:23Z,42.805,6.029,13.2980,4.59991,2470.119,2021-2-14T03:21:26Z
2021-02-14T01:23:26Z,42.805,6.029,13.2983,4.59991,2470.133,2021-2-14T03:24:30Z
2021-02-14T01:26:29Z,42.805,6.029,13.2983,4.59991,2470.133,2021-2-14T03:27:33Z
2021-02-14T01:29:32Z,42.805,6.029,13.2979,4.59991,2470.133,2021-2-14T03:30:36Z
2021-02-14T01:32:35Z,42.805,6.029,13.2984,4.59991,2470.133,2021-2-14T03:33:39Z
2021-02-14T01:35:38Z,42.805,6.029,13.2982,4.59991,2470.11,2021-2-14T03:36:42Z
2021-02-14T01:38:41Z,42.805,6.029,13.2979,4.59988,2470.133,2021-2-14T03:39:45Z
2021-02-14T01:41:45Z,42.805,6.029,13.2985,4.59998,2470.133,2021-2-14T03:42:48Z
2021-02-14T01:44:48Z,42.805,6.029,13.2983,4.59992,2470.1,2021-2-14T03:45:51Z
2021-02-14T01:47:51Z,42.805,6.029,13.2984,4.59993,2470.087,2021-2-14T03:48:55Z
2021-02-14T01:50:54Z,42.805,6.029,13.2983,4.59991,2470.11,2021-2-14T03:51:58Z
2021-02-14T01:53:57Z,42.805,6.029,13.2981,4.59989,2470.124,2021-2-14T03:55:01Z
2021-02-14T01:57:00Z,42.805,6.029,13.2983,4.59990,2470.11,2021-2-14T03:58:04Z
2021-02-14T02:00:03Z,42.805,6.029,13.2980,4.59987,2470.133,2021-2-14T04:01:07Z
2021-02-14T02:03:06Z,42.805,6.029,13.2984,4.59990,2470.147,2021-2-14T04:04:10Z
2021-02-14T02:06:09Z,42.805,6.029,13.2982,4.59989,2470.087,2021-2-14T04:07:13Z
2021-02-14T02:09:13Z,42.805,6.029,13.2982,4.59991,2470.063,2021-2-14T04:10:16Z
2021-02-14T02:12:16Z,42.805,6.029,13.2983,4.59991,2470.11,2021-2-14T04:13:20Z
2021-02-14T02:15:19Z,42.805,6.029,13.2979,4.59989,2470.087,2021-2-14T04:16:23Z
2021-02-14T02:18:22Z,42.805,6.029,13.2989,4.59996,2470.133,2021-2-14T04:19:26Z
2021-02-14T02:21:25Z,42.805,6.029,13.2983,4.59991,2470.1,2021-2-14T04:22:29Z
2021-02-14T02:24:28Z,42.805,6.029,13.2979,4.59989,2470.11,2021-2-14T04:25:32Z
2021-02-14T02:27:31Z,42.805,6.029,13.2978,4.59988,2470.1,2021-2-14T04:28:35Z
2021-02-14T02:30:34Z,42.805,6.029,13.2982,4.60001,2470.087,2021-2-14T04:31:38Z
2021-02-14T02:33:38Z,42.805,6.029,13.2979,4.59989,2470.147,2021-2-14T04:34:41Z
2021-02-14T02:36:41Z,42.805,6.029,13.2983,4.59988,2470.1,2021-2-14T04:37:45Z
2021-02-14T02:39:44Z,42.805,6.029,13.2987,4.59991,2470.11,2021-2-14T04:40:48Z
2021-02-14T02:42:47Z,42.805,6.029,13.2981,4.59987,2470.1,2021-2-14T04:43:51Z
2021-02-14T02:45:50Z,42.805,6.029,13.2983,4.59987,2470.11,2021-2-14T04:46:54Z
2021-02-14T02:48:53Z,42.805,6.029,13.2982,4.59991,2470.1,2021-2-14T04:49:57Z
2021-02-14T02:51:56Z,42.805,6.029,13.2983,4.59987,2470.124,2021-2-14T04:53:00Z
2021-02-14T02:54:59Z,42.805,6.029,13.2982,4.59987,2470.124,2021-2-14T04:56:03Z
2021-02-14T02:58:03Z,42.805,6.029,13.2979,4.59990,2470.11,2021-2-14T04:59:06Z
2021-02-14T03:01:06Z,42.805,6.029,13.2979,4.59987,2470.11,2021-2-14T05:02:10Z
2021-02-14T03:04:09Z,42.805,6.029,13.2983,4.59991,2470.11,2021-2-14T05:05:13Z
2021-02-14T03:07:12Z,42.805,6.029,13.2980,4.59991,2470.1,2021-2-14T05:08:16Z
2021-02-14T03:10:15Z,42.805,6.029,13.2982,4.59989,2470.1,2021-2-14T05:11:19Z
2021-02-14T03:13:18Z,42.805,6.029,13.2983,4.59989,2470.087,2021-2-14T05:14:22Z
2021-02-14T03:16:21Z,42.805,6.029,13.2979,4.59989,2470.124,2021-2-14T05:17:25Z
2021-02-14T03:19:24Z,42.805,6.029,13.2982,4.59989,2470.087,2021-2-14T05:20:28Z
2021-02-14T03:22:28Z,42.805,6.029,13.2982,4.59988,2470.124,2021-2-14T05:23:31Z
2021-02-14T03:25:31Z,42.805,6.029,13.2984,4.59989,2470.063,2021-2-14T05:26:34Z
2021-02-14T03:28:34Z,42.805,6.029,13.2983,4.59994,2470.087,2021-2-14T05:29:38Z
2021-02-14T03:31:37Z,42.805,6.029,13.2984,4.59988,2470.063,2021-2-14T05:32:41Z
2021-02-14T03:34:40Z,42.805,6.029,13.2977,4.59990,2470.087,2021-2-14T05:35:44Z
2021-02-14T03:37:43Z,42.805,6.029,13.2986,4.59990,2470.124,2021-2-14T05:38:47Z
2021-02-14T03:40:46Z,42.805,6.029,13.2979,4.59990,2470.1,2021-2-14T05:41:50Z
2021-02-14T03:43:49Z,42.805,6.029,13.2982,4.59987,2470.063,2021-2-14T05:44:53Z
2021-02-14T03:46:53Z,42.805,6.029,13.2979,4.59986,2470.11,2021-2-14T05:47:56Z
2021-02-14T03:49:56Z,42.805,6.029,13.2977,4.59988,2470.11,2021-2-14T05:50:59Z
2021-02-14T03:52:59Z,42.805,6.029,13.2982,4.59994,2470.133,2021-2-14T05:54:03Z
2021-02-14T03:56:02Z,42.805,6.029,13.2983,4.59990,2470.124,2021-2-14T05:57:06Z
2021-02-14T03:59:05Z,42.805,6.029,13.2979,4.59988,2470.124,2021-2-14T06:00:09Z
2021-02-14T04:02:08Z,42.805,6.029,13.2982,4.59985,2470.063,2021-2-14T06:03:12Z
2021-02-14T04:05:11Z,42.805,6.029,13.2982,4.59988,2470.063,2021-2-14T06:06:15Z
2021-02-14T04:08:14Z,42.805,6.029,13.2982,4.59987,2470.124,2021-2-14T06:09:18Z
2021-02-14T04:11:18Z,42.805,6.029,13.2983,4.59986,2470.087,2021-2-14T06:12:21Z
2021-02-14T04:14:21Z,42.805,6.029,13.2979,4.59986,2470.124,2021-2-14T06:15:24Z
2021-02-14T04:17:24Z,42.805,6.029,13.2977,4.59984,2470.1,2021-2-14T06:18:28Z
2021-02-14T04:20:27Z,42.805,6.029,13.2978,4.59987,2470.11,2021-2-14T06:21:31Z
2021-02-14T04:23:30Z,42.805,6.029,13.2987,4.59992,2470.133,2021-2-14T06:24:34Z
2021-02-14T04:26:33Z,42.805,6.029,13.2982,4.59991,2470.11,2021-2-14T06:27:37Z
2021-02-14T04:29:36Z,42.805,6.029,13.2979,4.59992,2470.11,2021-2-14T06:30:40Z
2021-02-14T04:32:39Z,42.805,6.029,13.2982,4.59990,2470.124,2021-2-14T06:33:43Z
2021-02-14T04:35:43Z,42.805,6.029,13.2986,4.59986,2470.11,2021-2-14T06:36:46Z
2021-02-14T04:38:46Z,42.805,6.029,13.2980,4.59986,2470.124,2021-2-14T06:39:49Z
2021-02-14T04:41:49Z,42.805,6.029,13.2981,4.59988,2470.133,2021-2-14T06:42:53Z
2021-02-14T04:44:52Z,42.805,6.029,13.2980,4.59991,2470.11,2021-2-14T06:45:56Z
2021-02-14T04:47:55Z,42.805,6.029,13.2983,4.59988,2470.147,2021-2-14T06:48:59Z
2021-02-14T04:50:58Z,42.805,6.029,13.2984,4.59989,2470.171,2021-2-14T06:52:02Z
2021-02-14T04:54:01Z,42.805,6.029,13.2985,4.59988,2470.133,2021-2-14T06:55:05Z
2021-02-14T04:57:04Z,42.805,6.029,13.2977,4.59995,2470.156,2021-2-14T06:58:08Z
2021-02-14T05:00:08Z,42.805,6.029,13.2980,4.59986,2470.171,2021-2-14T07:01:11Z
2021-02-14T05:03:11Z,42.805,6.029,13.2982,4.59988,2470.147,2021-2-14T07:04:14Z
2021-02-14T05:06:14Z,42.805,6.029,13.2985,4.60000,2470.133,2021-2-14T07:07:18Z
2021-02-14T05:09:17Z,42.805,6.029,13.2982,4.59990,2470.156,2021-2-14T07:10:21Z
2021-02-14T05:12:20Z,42.805,6.029,13.2979,4.59988,2470.156,2021-2-14T07:13:24Z
2021-02-14T05:15:23Z,42.805,6.029,13.2982,4.60002,2470.171,2021-2-14T07:16:27Z
2021-02-14T05:18:26Z,42.805,6.029,13.2975,4.59987,2470.11,2021-2-14T07:19:30Z
2021-02-14T05:21:29Z,42.805,6.029,13.2984,4.59989,2470.156,2021-2-14T07:22:33Z
2021-02-14T05:24:32Z,42.805,6.029,13.2982,4.59987,2470.156,2021-2-14T07:25:36Z
2021-02-14T05:27:36Z,42.805,6.029,13.2979,4.59988,2470.156,2021-2-14T07:28:39Z
2021-02-14T05:30:39Z,42.805,6.029,13.2980,4.59988,2470.18,2021-2-14T07:31:43Z
2021-02-14T05:33:42Z,42.805,6.029,13.2979,4.59986,2470.18,2021-2-14T07:34:46Z
2021-02-14T05:36:45Z,42.805,6.029,13.2979,4.59986,2470.18,2021-2-14T07:37:49Z
2021-02-14T05:39:48Z,42.805,6.029,13.2986,4.59993,2470.18,2021-2-14T07:40:52Z
2021-02-14T05:42:51Z,42.805,6.029,13.2980,4.59987,2470.18,2021-2-14T07:43:55Z
2021-02-14T05:45:54Z,42.805,6.029,13.2981,4.59989,2470.203,2021-2-14T07:46:58Z
2021-02-14T05:48:57Z,42.805,6.029,13.2979,4.59986,2470.217,2021-2-14T07:50:01Z
2021-02-14T05:52:01Z,42.805,6.029,13.2982,4.59990,2470.203,2021-2-14T07:53:04Z
2021-02-14T05:55:04Z,42.805,6.029,13.2976,4.59987,2470.203,2021-2-14T07:56:08Z
2021-02-14T05:58:07Z,42.805,6.029,13.2979,4.59988,2470.217,2021-2-14T07:59:11Z
2021-02-14T06:01:10Z,42.805,6.029,13.2981,4.59991,2470.203,2021-2-14T08:02:14Z
2021-02-14T06:04:13Z,42.805,6.029,13.2986,4.59991,2470.217,2021-2-14T08:05:17Z
2021-02-14T06:07:16Z,42.805,6.029,13.2984,4.59998,2470.227,2021-2-14T08:08:20Z
2021-02-14T06:10:19Z,42.805,6.029,13.2985,4.59991,2470.227,2021-2-14T08:11:23Z
2021-02-14T06:13:22Z,42.805,6.029,13.2983,4.59991,2470.24,2021-2-14T08:14:26Z
2021-02-14T06:16:26Z,42.805,6.029,13.2985,4.59991,2470.227,2021-2-14T08:17:29Z
2021-02-14T06:19:29Z,42.805,6.029,13.2985,4.59996,2470.24,2021-2-14T08:20:32Z
2021-02-14T06:22:32Z,42.805,6.029,13.2983,4.59994,2470.25,2021-2-14T08:23:36Z
2021-02-14T06:25:35Z,42.805,6.029,13.2984,4.59991,2470.25,2021-2-14T08:26:39Z
2021-02-14T06:28:38Z,42.805,6.029,13.2985,4.59990,2470.264,2021-2-14T08:29:42Z
2021-02-14T06:31:41Z,42.805,6.029,13.2986,4.59992,2470.273,2021-2-14T08:32:45Z
2021-02-14T06:34:44Z,42.805,6.029,13.2982,4.59991,2470.287,2021-2-14T08:35:48Z
2021-02-14T06:37:47Z,42.805,6.029,13.2981,4.59991,2470.264,2021-2-14T08:38:51Z
2021-02-14T06:40:51Z,42.805,6.029,13.2983,4.59993,2470.273,2021-2-14T08:41:54Z
2021-02-14T06:43:54Z,42.805,6.029,13.2982,4.59992,2470.273,2021-2-14T08:44:57Z
2021-02-14T06:46:57Z,42.805,6.029,13.2985,4.60001,2470.273,2021-2-14T08:48:01Z
2021-02-14T06:50:00Z,42.805,6.029,13.2986,4.59991,2470.273,2021-2-14T08:51:04Z
2021-02-14T06:53:03Z,42.805,6.029,13.2981,4.59990,2470.273,2021-2-14T08:54:07Z
2021-02-14T06:56:06Z,42.805,6.029,13.2983,4.59991,2470.297,2021-2-14T08:57:10Z
2021-02-14T06:59:09Z,42.805,6.029,13.2983,4.59991,2470.334,2021-2-14T09:00:13Z
2021-02-14T07:02:12Z,42.805,6.029,13.2982,4.59994,2470.297,2021-2-14T09:03:16Z
2021-02-14T07:05:16Z,42.805,6.029,13.2987,4.59994,2470.32,2021-2-14T09:06:19Z
2021-02-14T07:08:19Z,42.805,6.029,13.2984,4.59994,2470.273,2021-2-14T09:09:22Z
2021-02-14T07:11:22Z,42.805,6.029,13.2984,4.59998,2470.297,2021-2-14T09:12:26Z
2021-02-14T07:14:25Z,42.805,6.029,13.2984,4.59992,2470.357,2021-2-14T09:15:29Z
2021-02-14T07:17:28Z,42.805,6.029,13.2979,4.59992,2470.343,2021-2-14T09:18:32Z
2021-02-14T07:20:31Z,42.805,6.029,13.2990,4.59996,2470.343,2021-2-14T09:21:35Z
2021-02-14T07:23:34Z,42.805,6.029,13.2983,4.59994,2470.343,2021-2-14T09:24:38Z
2021-02-14T07:26:37Z,42.805,6.029,13.2982,4.59991,2470.32,2021-2-14T09:27:41Z
2021-02-14T07:29:41Z,42.805,6.029,13.2986,4.59994,2470.343,2021-2-14T09:30:44Z
2021-02-14T07:32:44Z,42.805,6.029,13.2984,4.59994,2470.343,2021-2-14T09:33:47Z
2021-02-14T07:35:47Z,42.805,6.029,13.2986,4.59996,2470.32,2021-2-14T09:36:51Z
2021-02-14T07:38:50Z,42.805,6.029,13.2985,4.59995,2470.366,2021-2-14T09:39:54Z
2021-02-14T07:41:53Z,42.805,6.029,13.2986,4.59994,2470.343,2021-2-14T09:42:57Z
2021-02-14T07:44:56Z,42.805,6.029,13.2982,4.59991,2470.343,2021-2-14T09:46:00Z
2021-02-14T07:47:59Z,42.805,6.029,13.2982,4.59991,2470.366,2021-2-14T09:49:03Z
2021-02-14T07:51:02Z,42.805,6.029,13.2986,4.59991,2470.334,2021-2-14T09:52:06Z
2021-02-14T07:54:06Z,42.805,6.029,13.2983,4.59994,2470.366,2021-2-14T09:55:09Z
2021-02-14T07:57:09Z,42.805,6.029,13.2982,4.59991,2470.366,2021-2-14T09:58:12Z
2021-02-14T08:00:12Z,42.805,6.029,13.2982,4.59991,2470.366,2021-2-14T10:01:16Z
2021-02-14T08:03:15Z,42.805,6.029,13.2987,4.59992,2470.343,2021-2-14T10:04:19Z
2021-02-14T08:06:18Z,42.805,6.029,13.2981,4.59993,2470.366,2021-2-14T10:07:22Z
2021-02-14T08:09:21Z,42.805,6.029,13.2983,4.59990,2470.39,2021-2-14T10:10:25Z
2021-02-14T08:12:24Z,42.805,6.029,13.2983,4.60009,2470.39,2021-2-14T10:13:28Z
2021-02-14T08:15:27Z,42.805,6.029,13.2988,4.59993,2470.366,2021-2-14T10:16:31Z
2021-02-14T08:18:31Z,42.805,6.029,13.2982,4.60008,2470.39,2021-2-14T10:19:34Z
2021-02-14T08:21:34Z,42.805,6.029,13.2990,4.59996,2470.366,2021-2-14T10:22:37Z
2021-02-14T08:24:37Z,42.805,6.029,13.2982,4.59994,2470.404,2021-2-14T10:25:41Z
2021-02-14T08:27:40Z,42.805,6.029,13.2983,4.59994,2470.404,2021-2-14T10:28:44Z
2021-02-14T08:30:43Z,42.805,6.029,13.2988,4.59995,2470.404,2021-2-14T10:31:47Z
2021-02-14T08:33:46Z,42.805,6.029,13.2983,4.59991,2470.357,2021-2-14T10:34:50Z
2021-02-14T08:36:49Z,42.805,6.029,13.2981,4.59990,2470.366,2021-2-14T10:37:53Z
2021-02-14T08:39:52Z,42.805,6.029,13.2982,4.59990,2470.38,2021-2-14T10:40:56Z
2021-02-14T08:42:56Z,42.805,6.029,13.2983,4.59989,2470.39,2021-2-14T10:43:59Z
2021-02-14T08:45:59Z,42.805,6.029,13.2979,4.59992,2470.39,2021-2-14T10:47:02Z
2021-02-14T08:49:02Z,42.805,6.029,13.2985,4.59994,2470.404,2021-2-14T10:50:06Z
2021-02-14T08:52:05Z,42.805,6.029,13.2980,4.59991,2470.39,2021-2-14T10:53:09Z
2021-02-14T08:55:08Z,42.805,6.029,13.2982,4.59988,2470.39,2021-2-14T10:56:12Z
2021-02-14T08:58:11Z,42.805,6.029,13.2983,4.59988,2470.413,2021-2-14T10:59:15Z
2021-02-14T09:01:14Z,42.805,6.029,13.2983,4.59991,2470.404,2021-2-14T11:02:18Z
2021-02-14T09:04:17Z,42.805,6.029,13.2983,4.59991,2470.404,2021-2-14T11:05:21Z
2021-02-14T09:07:21Z,42.805,6.029,13.2979,4.59990,2470.39,2021-2-14T11:08:24Z
2021-02-14T09:10:24Z,42.805,6.029,13.2981,4.59990,2470.366,2021-2-14T11:11:28Z
2021-02-14T09:13:27Z,42.805,6.029,13.2979,4.59987,2470.38,2021-2-14T11:14:31Z
2021-02-14T09:16:30Z,42.805,6.029,13.2982,4.59991,2470.366,2021-2-14T11:17:34Z
2021-02-14T09:19:33Z,42.805,6.029,13.2979,4.59991,2470.39,2021-2-14T11:20:37Z
2021-02-14T09:22:36Z,42.805,6.029,13.2983,4.59995,2470.366,2021-2-14T11:23:40Z
2021-02-14T09:25:39Z,42.805,6.029,13.2992,4.59996,2470.366,2021-2-14T11:26:43Z
2021-02-14T09:28:42Z,42.805,6.029,13.2980,4.59990,2470.413,2021-2-14T11:29:46Z
2021-02-14T09:31:46Z,42.805,6.029,13.2981,4.59993,2470.404,2021-2-14T11:32:49Z
2021-02-14T09:34:49Z,42.805,6.029,13.2981,4.59987,2470.343,2021-2-14T11:35:53Z
2021-02-14T09:37:52Z,42.805,6.029,13.2983,4.59991,2470.38,2021-2-14T11:38:56Z
2021-02-14T09:40:55Z,42.805,6.029,13.2982,4.59992,2470.404,2021-2-14T11:41:59Z
2021-02-14T09:43:58Z,42.805,6.029,13.2987,4.59996,2470.404,2021-2-14T11:45:02Z
2021-02-14T09:47:01Z,42.805,6.029,13.2984,4.59998,2470.366,2021-2-14T11:48:05Z
2021-02-14T09:50:04Z,42.805,6.029,13.2986,4.59994,2470.39,2021-2-14T11:51:08Z
2021-02-14T09:53:08Z,42.805,6.029,13.2988,4.59994,2470.38,2021-2-14T11:54:11Z
2021-02-14T09:56:11Z,42.805,6.029,13.2979,4.59989,2470.38,2021-2-14T11:57:14Z
2021-02-14T09:59:14Z,42.805,6.029,13.2981,4.59988,2470.366,2021-2-14T12:00:18Z
2021-02-14T10:02:17Z,42.805,6.029,13.2983,4.59990,2470.39,2021-2-14T12:03:21Z
2021-02-14T10:05:20Z,42.805,6.029,13.2985,4.59989,2470.366,2021-2-14T12:06:24Z
2021-02-14T10:08:23Z,42.805,6.029,13.2979,4.59991,2470.38,2021-2-14T12:09:27Z
2021-02-14T10:11:26Z,42.805,6.029,13.2978,4.59989,2470.366,2021-2-14T12:12:30Z
2021-02-14T10:14:29Z,42.805,6.029,13.2981,4.59994,2470.366,2021-2-14T12:15:33Z
2021-02-14T10:17:33Z,42.805,6.029,13.2985,4.59991,2470.39,2021-2-14T12:18:36Z
2021-02-14T10:20:36Z,42.805,6.029,13.2984,4.59995,2470.366,2021-2-14T12:21:39Z
2021-02-14T10:23:39Z,42.805,6.029,13.2979,4.59991,2470.39,2021-2-14T12:24:43Z
2021-02-14T10:26:42Z,42.805,6.029,13.2982,4.59992,2470.39,2021-2-14T12:27:46Z
2021-02-14T10:29:45Z,42.805,6.029,13.2982,4.59988,2470.376,2021-2-14T12:30:49Z
2021-02-14T10:32:48Z,42.805,6.029,13.2983,4.60000,2470.366,2021-2-14T12:33:52Z
2021-02-14T10:35:51Z,42.805,6.029,13.2983,4.59992,2470.366,2021-2-14T12:36:55Z
2021-02-14T10:38:54Z,42.805,6.029,13.2983,4.59992,2470.38,2021-2-14T12:39:58Z
2021-02-14T10:41:58Z,42.805,6.029,13.2976,4.59993,2470.334,2021-2-14T12:43:01Z
2021-02-14T10:45:01Z,42.805,6.029,13.2982,4.59995,2470.38,2021-2-14T12:46:05Z
2021-02-14T10:48:04Z,42.805,6.029,13.2979,4.59992,2470.343,2021-2-14T12:49:08Z
2021-02-14T10:51:07Z,42.805,6.029,13.2983,4.59991,2470.343,2021-2-14T12:52:11Z
2021-02-14T10:54:10Z,42.805,6.029,13.2980,4.59998,2470.357,2021-2-14T12:55:14Z
2021-02-14T10:57:13Z,42.805,6.029,13.2979,4.59992,2470.366,2021-2-14T12:58:17Z
2021-02-14T11:00:16Z,42.805,6.029,13.2980,4.59989,2470.38,2021-2-14T13:01:20Z
2021-02-14T11:03:19Z,42.805,6.029,13.2980,4.59992,2470.343,2021-2-14T13:04:23Z
2021-02-14T11:06:23Z,42.805,6.029,13.2982,4.59995,2470.357,2021-2-14T13:07:26Z
2021-02-14T11:09:26Z,42.805,6.029,13.2984,4.59992,2470.366,2021-2-14T13:10:30Z
2021-02-14T11:12:29Z,42.805,6.029,13.2982,4.59991,2470.343,2021-2-14T13:13:33Z
2021-02-14T11:15:32Z,42.805,6.029,13.2982,4.59990,2470.366,2021-2-14T13:16:36Z
2021-02-14T11:18:35Z,42.805,6.029,13.2982,4.59989,2470.334,2021-2-14T13:19:39Z
2021-02-14T11:21:38Z,42.805,6.029,13.2982,4.59992,2470.357,2021-2-14T13:22:42Z
2021-02-14T11:24:41Z,42.805,6.029,13.2984,4.59993,2470.32,2021-2-14T13:25:45Z
2021-02-14T11:27:45Z,42.805,6.029,13.2983,4.59993,2470.343,2021-2-14T13:28:48Z
2021-02-14T11:30:48Z,42.805,6.029,13.2981,4.59994,2470.357,2021-2-14T13:31:51Z
2021-02-14T11:33:51Z,42.805,6.029,13.2979,4.59991,2470.32,2021-2-14T13:34:55Z
2021-02-14T11:36:54Z,42.805,6.029,13.2979,4.59989,2470.32,2021-2-14T13:37:58Z
2021-02-14T11:39:57Z,42.805,6.029,13.2981,4.59991,2470.343,2021-2-14T13:41:01Z
2021-02-14T11:43:00Z,42.805,6.029,13.2983,4.59996,2470.287,2021-2-14T13:44:04Z
2021-02-14T11:46:03Z,42.805,6.029,13.2984,4.59995,2470.334,2021-2-14T13:47:07Z
2021-02-14T11:49:06Z,42.805,6.029,13.2984,4.59998,2470.334,2021-2-14T13:50:10Z
2021-02-14T11:52:10Z,42.805,6.029,13.2982,4.59993,2470.334,2021-2-14T13:53:13Z
2021-02-14T11:55:13Z,42.805,6.029,13.2985,4.59996,2470.334,2021-2-14T13:56:16Z
2021-02-14T11:58:16Z,42.805,6.029,13.2982,4.59993,2470.297,2021-2-14T13:59:20Z
2021-02-14T12:01:19Z,42.805,6.029,13.2980,4.59992,2470.287,2021-2-14T14:02:23Z
2021-02-14T12:04:22Z,42.805,6.029,13.2982,4.59991,2470.357,2021-2-14T14:05:26Z
2021-02-14T12:07:25Z,42.805,6.029,13.2988,4.59991,2470.273,2021-2-14T14:08:29Z
2021-02-14T12:10:28Z,42.805,6.029,13.2983,4.59988,2470.297,2021-2-14T14:11:32Z
2021-02-14T12:13:31Z,42.805,6.029,13.2983,4.59994,2470.297,2021-2-14T14:14:35Z
2021-02-14T12:16:35Z,42.805,6.029,13.2980,4.59990,2470.32,2021-2-14T14:17:38Z
2021-02-14T12:19:38Z,42.805,6.029,13.2983,4.59991,2470.32,2021-2-14T14:20:42Z
2021-02-14T12:22:41Z,42.805,6.029,13.2980,4.59991,2470.297,2021-2-14T14:23:45Z
2021-02-14T12:25:44Z,42.805,6.029,13.2983,4.59991,2470.32,2021-2-14T14:26:48Z
2021-02-14T12:28:47Z,42.805,6.029,13.2985,4.59996,2470.297,2021-2-14T14:29:51Z
2021-02-14T12:31:50Z,42.805,6.029,13.2982,4.59993,2470.297,2021-2-14T14:32:54Z
2021-02-14T12:34:53Z,42.805,6.029,13.2979,4.59989,2470.297,2021-2-14T14:35:57Z
2021-02-14T12:37:56Z,42.805,6.029,13.2982,4.59991,2470.273,2021-2-14T14:39:00Z
2021-02-14T12:41:00Z,42.805,6.029,13.2979,4.59994,2470.287,2021-2-14T14:42:03Z
2021-02-14T12:44:03Z,42.805,6.029,13.2981,4.59994,2470.264,2021-2-14T14:45:07Z
2021-02-14T12:47:06Z,42.805,6.029,13.2982,4.59991,2470.25,2021-2-14T14:48:10Z
2021-02-14T12:50:09Z,42.805,6.029,13.2983,4.59991,2470.25,2021-2-14T14:51:13Z
2021-02-14T12:53:12Z,42.805,6.029,13.2983,4.59991,2470.31,2021-2-14T14:54:16Z
2021-02-14T12:56:15Z,42.805,6.029,13.2982,4.59992,2470.31,2021-2-14T14:57:19Z
2021-02-14T12:59:18Z,42.805,6.029,13.2987,4.59993,2470.264,2021-2-14T15:00:22Z
2021-02-14T13:02:21Z,42.805,6.029,13.2988,4.59995,2470.31,2021-2-14T15:03:25Z
2021-02-14T13:05:25Z,42.805,6.029,13.2980,4.59991,2470.273,2021-2-14T15:06:28Z
2021-02-14T13:08:28Z,42.805,6.029,13.2979,4.59991,2470.273,2021-2-14T15:09:32Z
2021-02-14T13:11:31Z,42.805,6.029,13.2982,4.59990,2470.227,2021-2-14T15:12:35Z
2021-02-14T13:14:34Z,42.805,6.029,13.2980,4.59988,2470.273,2021-2-14T15:15:38Z
2021-02-14T13:17:37Z,42.805,6.029,13.2983,4.59991,2470.264,2021-2-14T15:18:41Z
2021-02-14T13:20:40Z,42.805,6.029,13.2988,4.59992,2470.273,2021-2-14T15:21:44Z
2021-02-14T13:23:43Z,42.805,6.029,13.2988,4.59998,2470.24,2021-2-14T15:24:47Z
2021-02-14T13:26:47Z,42.805,6.029,13.2984,4.59996,2470.25,2021-2-14T15:27:50Z
2021-02-14T13:29:50Z,42.805,6.029,13.2981,4.59996,2470.25,2021-2-14T15:30:53Z
2021-02-14T13:32:53Z,42.805,6.029,13.2982,4.60001,2470.227,2021-2-14T15:33:57Z
2021-02-14T13:35:56Z,42.805,6.029,13.2981,4.59993,2470.273,2021-2-14T15:37:00Z
2021-02-14T13:38:59Z,42.805,6.029,13.2983,4.59989,2470.227,2021-2-14T15:40:03Z
2021-02-14T13:42:02Z,42.805,6.029,13.2986,4.59996,2470.287,2021-2-14T15:43:06Z
2021-02-14T13:45:05Z,42.805,6.029,13.2982,4.60000,2470.227,2021-2-14T15:46:09Z
2021-02-14T13:48:08Z,42.805,6.029,13.2986,4.60002,2470.25,2021-2-14T15:49:12Z
2021-02-14T13:51:12Z,42.805,6.029,13.2983,4.60014,2470.227,2021-2-14T15:52:15Z
2021-02-14T13:54:15Z,42.805,6.029,13.2983,4.59999,2470.227,2021-2-14T15:55:18Z
2021-02-14T13:57:18Z,42.805,6.029,13.2982,4.59990,2470.25,2021-2-14T15:58:22Z
2021-02-14T14:00:21Z,42.805,6.029,13.2985,4.59998,2470.217,2021-2-14T16:01:25Z
2021-02-14T14:03:24Z,42.805,6.029,13.2986,4.60000,2470.203,2021-2-14T16:04:28Z
2021-02-14T14:06:27Z,42.805,6.029,13.2985,4.59993,2470.227,2021-2-14T16:07:31Z
2021-02-14T14:09:30Z,42.805,6.029,13.2990,4.60002,2470.25,2021-2-14T16:10:34Z
2021-02-14T14:12:33Z,42.805,6.029,13.2982,4.60003,2470.18,2021-2-14T16:13:37Z
2021-02-14T14:15:37Z,42.805,6.029,13.2987,4.60001,2470.203,2021-2-14T16:16:40Z
2021-02-14T14:18:40Z,42.805,6.029,13.2985,4.59993,2470.217,2021-2-14T16:19:43Z
2021-02-14T14:21:43Z,42.805,6.029,13.2984,4.60002,2470.217,2021-2-14T16:22:47Z
2021-02-14T14:24:46Z,42.805,6.029,13.2989,4.60007,2470.24,2021-2-14T16:25:50Z
2021-02-14T14:27:49Z,42.805,6.029,13.2982,4.59992,2470.203,2021-2-14T16:28:53Z
2021-02-14T14:30:52Z,42.805,6.029,13.2985,4.60001,2470.227,2021-2-14T16:31:56Z
2021-02-14T14:33:55Z,42.805,6.029,13.2983,4.59995,2470.217,2021-2-14T16:34:59Z
2021-02-14T14:36:58Z,42.805,6.029,13.2991,4.60001,2470.227,2021-2-14T16:38:02Z
2021-02-14T14:40:02Z,42.805,6.029,13.2982,4.60008,2470.203,2021-2-14T16:41:05Z
2021-02-14T14:43:05Z,42.805,6.029,13.2986,4.59996,2470.203,2021-2-14T16:44:08Z
2021-02-14T14:46:08Z,42.805,6.029,13.2986,4.59995,2470.18,2021-2-14T16:47:12Z
2021-02-14T14:49:11Z,42.805,6.029,13.2987,4.59996,2470.18,2021-2-14T16:50:15Z
2021-02-14T14:52:14Z,42.805,6.029,13.2990,4.59991,2470.18,2021-2-14T16:53:18Z
2021-02-14T14:55:17Z,42.805,6.029,13.2988,4.59997,2470.18,2021-2-14T16:56:21Z
2021-02-14T14:58:20Z,42.805,6.029,13.2986,4.59999,2470.217,2021-2-14T16:59:24Z
2021-02-14T15:01:23Z,42.805,6.029,13.2986,4.59996,2470.203,2021-2-14T17:02:27Z
2021-02-14T15:04:27Z,42.805,6.029,13.2986,4.59999,2470.194,2021-2-14T17:05:30Z
2021-02-14T15:07:30Z,42.805,6.029,13.2986,4.59999,2470.194,2021-2-14T17:08:34Z
2021-02-14T15:10:33Z,42.805,6.029,13.2993,4.60005,2470.156,2021-2-14T17:11:37Z
2021-02-14T15:13:36Z,42.805,6.029,13.2986,4.59998,2470.203,2021-2-14T17:14:40Z